Content
SEND FEEDBACK

Daily
Averages
Monthly
Summary
United States of America

AUBURN, CALIFORNIA


Home > North America > United States > California
Elevation: 1279 feet     Latitude: 38 53N     Longitude: 121 04W

WEATHER
 
SELECT A DAY
Number of Records: 293,198;   Date Range: 8/19/02 - 9/18/14
 
SHARE

PRINT THIS DATA

[ ← Previous Day ]
WEATHER ALMANAC - FEBRUARY 3, 2013
[ Next Day → ]
[ °C ]   °F
Weather ElementAverageHighLow
Temperature49.6 °F60.8 °F (1:15 pm)41 °F (6:35 am)
Dewpoint37.1 °F44.6 °F (3:15 pm)30.2 °F (7:55 am)
Humidity64 %93 % (9:55 pm)38 % (10:55 am)
Barometer30.17 in30.22 in (10:15 am)30.12 in (4:35 pm)
Wind Speed2.6 mph9.2 mph (2:55 pm)
Weather ElementAverage
Visibility10 mi
Wind DirectionENE (82.9 °)

Weather ElementTotal
Precipitation---
Heating Degree Days14.1 (Base 65)
Growing Degree Days0.9 (Base 50)
Averaged from 66 records on February 3, 2013
WEATHER CONDITIONS BREAKOUT
WIND DIRECTION BREAKOUT
WEATHER BY HOUR - FEBRUARY 3, 2013
[ °C ]   °F
Local TimeTemperatureDewpointHumidityBarometerVisibilityWind DirectionWind SpeedGust SpeedPrecipitationEventsConditions
12:35 AM46.4 °F35.6 °F66 %30.21 in10.0 miESE (110°)4.6 mphClear
12:55 AM46.4 °F35.6 °F66 %30.20 in10.0 miCalmClear
1:15 AM46.4 °F35.6 °F66 %30.20 in10.0 miCalmClear
1:35 AM46.4 °F33.8 °F62 %30.19 in10.0 miEast (100°)3.5 mphClear
1:55 AM44.6 °F33.8 °F66 %30.19 in10.0 miEast (100°)4.6 mphClear
2:15 AM46.4 °F33.8 °F62 %30.19 in10.0 miESE (110°)5.8 mphClear
2:35 AM44.6 °F33.8 °F66 %30.20 in10.0 miCalmClear
2:55 AM44.6 °F33.8 °F66 %30.20 in10.0 miCalmClear
3:15 AM44.6 °F33.8 °F66 %30.19 in10.0 miCalmClear
3:35 AM42.8 °F32.0 °F66 %30.19 in10.0 miCalmClear
3:55 AM46.4 °F32.0 °F57 %30.18 in10.0 miEast (100°)4.6 mphClear
4:15 AM46.4 °F33.8 °F62 %30.18 in10.0 miEast (100°)8.1 mphClear
4:35 AM46.4 °F32.0 °F57 %30.18 in10.0 miEast (80°)4.6 mphClear
5:15 AM42.8 °F32.0 °F66 %30.19 in10.0 miCalmClear
5:35 AM44.6 °F32.0 °F61 %30.19 in10.0 miEast (90°)6.9 mphClear
5:55 AM44.6 °F32.0 °F61 %30.19 in10.0 miEast (90°)6.9 mphClear
6:15 AM42.8 °F32.0 °F66 %30.19 in10.0 miEast (100°)3.5 mphClear
6:35 AM41.0 °F32.0 °F70 %30.20 in10.0 miEast (90°)4.6 mphClear
6:55 AM42.8 °F32.0 °F66 %30.20 in10.0 miESE (110°)3.5 mphClear
7:15 AM42.8 °F32.0 °F66 %30.20 in10.0 miEast (100°)5.8 mphClear
7:35 AM42.8 °F32.0 °F66 %30.20 in10.0 miSE (130°)3.5 mphClear
7:55 AM44.6 °F30.2 °F57 %30.20 in10.0 miESE (120°)5.8 mphClear
8:15 AM46.4 °F32.0 °F57 %30.20 in10.0 miESE (120°)4.6 mphClear
8:35 AM48.2 °F32.0 °F54 %30.20 in10.0 miEast (100°)6.9 mphClear
9:15 AM51.8 °F32.0 °F47 %30.20 in10.0 miCalmClear
9:35 AM53.6 °F33.8 °F47 %30.21 in10.0 miWNW (300°)3.5 mphClear
9:55 AM53.6 °F32.0 °F44 %30.21 in10.0 miNW (320°)3.5 mphClear
10:15 AM53.6 °F32.0 °F44 %30.22 in10.0 miWest (280°)4.6 mphClear
10:35 AM55.4 °F32.0 °F41 %30.22 in10.0 miCalmClear
10:55 AM57.2 °F32.0 °F38 %30.22 in10.0 miCalmClear
11:15 AM57.2 °F35.6 °F44 %30.22 in10.0 miCalmClear
11:35 AM57.2 °F35.6 °F44 %30.21 in10.0 miWest (260°)4.6 mphClear
11:55 AM57.2 °F37.4 °F48 %30.19 in10.0 miWest (270°)4.6 mphClear
12:15 PM57.2 °F37.4 °F48 %30.18 in10.0 miCalmClear
12:35 PM59.0 °F37.4 °F45 %30.17 in10.0 miWNW (290°)4.6 mphClear
12:55 PM59.0 °F37.4 °F45 %30.16 in10.0 miCalmClear
1:15 PM60.8 °F37.4 °F42 %30.15 in10.0 miCalmClear
1:35 PM60.8 °F39.2 °F45 %30.15 in10.0 miWest (280°)5.8 mphClear
2:15 PM60.8 °F42.8 °F52 %30.14 in10.0 miWest (280°)6.9 mphClear
2:35 PM59.0 °F42.8 °F55 %30.14 in10.0 miWest (260°)8.1 mphClear
2:55 PM57.2 °F42.8 °F59 %30.14 in10.0 miWNW (290°)9.2 mphClear
3:15 PM57.2 °F44.6 °F63 %30.14 in10.0 miWNW (290°)8.1 mphClear
3:35 PM59.0 °F44.6 °F59 %30.14 in10.0 miWNW (300°)4.6 mphClear
3:55 PM57.2 °F42.8 °F59 %30.13 in10.0 miCalmClear
4:15 PM57.2 °F42.8 °F59 %30.13 in10.0 miCalmClear
4:35 PM57.2 °F42.8 °F59 %30.12 in10.0 miCalmClear
4:55 PM57.2 °F42.8 °F59 %30.12 in10.0 miCalmClear
5:15 PM55.4 °F41.0 °F58 %30.12 in10.0 miCalmClear
5:35 PM51.8 °F41.0 °F67 %30.12 in10.0 miCalmClear
5:55 PM50.0 °F39.2 °F66 %30.12 in10.0 miCalmClear
6:15 PM46.4 °F39.2 °F76 %30.12 in10.0 miCalmClear
6:35 PM44.6 °F39.2 °F81 %30.13 in10.0 miCalmClear
6:55 PM44.6 °F39.2 °F81 %30.13 in10.0 miCalmClear
7:15 PM44.6 °F39.2 °F81 %30.13 in10.0 miCalmClear
7:35 PM44.6 °F39.2 °F81 %30.13 in10.0 miCalmClear
7:55 PM42.8 °F39.2 °F87 %30.13 in10.0 miESE (110°)3.5 mphClear
8:15 PM46.4 °F42.8 °F87 %30.13 in10.0 miCalmClear
8:35 PM48.2 °F42.8 °F82 %30.13 in10.0 miESE (110°)5.8 mphClear
9:15 PM48.2 °F42.8 °F82 %30.13 in10.0 miCalmClear
9:35 PM46.4 °F42.8 °F87 %30.13 in10.0 miCalmClear
9:55 PM44.6 °F42.8 °F93 %30.14 in9.0 miCalmClear
10:15 PM41.0 °F39.2 °F93 %30.14 in10.0 miCalmClear
10:35 PM46.4 °F42.8 °F87 %30.14 in10.0 miCalmClear
10:55 PM46.4 °F42.8 °F87 %30.14 in10.0 miCalmClear
11:15 PM42.8 °F41.0 °F93 %30.14 in10.0 miCalmClear
11:35 PM44.6 °F42.8 °F93 %30.14 in10.0 miEast (80°)4.6 mphClear
Hourly data recorded from KAUN, located miles away from Auburn, California







STORIES FROM OUR PARTNERS